JI1UWB-13 Weather Reports


time (UTC)temp
F
wind
direction
speed
knots
gust
knots
rain 1hr
in
rain 24hr
in
rain mn
in
humidity
%
barometer
mb
20260505224518 61 286 0.9 1.7 0.00 0.00 0.00 57 1023.9
20260505223516 62 314 0.9 1.7 0.00 0.00 0.00 57 1023.8
20260505222519 61 331 0.9 1.7 0.00 0.00 0.00 57 1024.0
20260505221538 62 273 0.9 1.7 0.00 0.00 0.00 56 1023.9
20260505220517 61 312 0.0 0.9 0.00 0.00 0.00 57 1024.0
20260505215518 61 313 0.0 0.9 0.00 0.00 0.00 58 1023.9
20260505214517 61 9 0.9 1.7 0.00 0.00 0.00 58 1024.0
20260505213517 60 19 0.9 1.7 0.00 0.00 0.00 59 1023.9
20260505212519 60 305 0.0 0.9 0.00 0.00 0.00 59 1024.0
20260505211518 60 344 0.9 1.7 0.00 0.00 0.00 59 1023.9
20260505210517 60 20 0.9 1.7 0.00 0.00 0.00 59 1023.9
20260505205519 60 290 0.0 0.9 0.00 0.00 0.00 59 1023.9
20260505204518 60 1 0.0 0.9 0.00 0.00 0.00 60 1023.9
20260505203517 60 11 0.9 1.7 0.00 0.00 0.00 60 1023.8
20260505202519 60 14 0.9 1.7 0.00 0.00 0.00 61 1023.9
20260505201518 60 28 0.9 1.7 0.00 0.00 0.00 61 1023.8
20260505200537 60 330 0.9 1.7 0.00 0.00 0.00 60 1023.7
20260505195519 60 350 0.0 0.9 0.00 0.00 0.00 60 1023.6
20260505194518 60 313 0.9 1.7 0.00 0.00 0.00 60 1023.6
20260505193517 61 302 0.9 0.9 0.00 0.00 0.00 59 1023.6
20260505192519 61 298 0.0 1.7 0.00 0.00 0.00 58 1023.6
20260505191538 61 291 0.9 1.7 0.00 0.00 0.00 58 1023.5
20260505190517 61 290 0.0 1.7 0.00 0.00 0.00 58 1023.4
20260505185519 62 252 0.0 0.0 0.00 0.00 0.00 57 1023.2
20260505184518 62 284 0.9 1.7 0.00 0.00 0.00 57 1023.1
20260505183517 62 248 0.0 1.7 0.00 0.00 0.00 57 1023.2
20260505182539 62 276 0.0 0.9 0.00 0.00 0.00 58 1023.3
20260505181518 62 272 0.0 1.7 0.00 0.00 0.00 59 1023.2
20260505180517 62 253 0.9 1.7 0.00 0.00 0.00 60 1023.1
20260505175515 62 201 0.0 0.9 0.00 0.00 0.00 59 1023.0
20260505174518 62 248 0.9 1.7 0.00 0.00 0.00 59 1023.0
20260505173517 62 253 0.9 2.6 0.00 0.00 0.00 59 1023.1
20260505172556 62 248 0.9 3.5 0.00 0.00 0.00 59 1023.1
20260505171518 62 259 0.9 3.5 0.00 0.00 0.00 59 1023.1
20260505170537 62 256 0.9 3.5 0.00 0.00 0.00 59 1023.2
20260505165516 62 244 0.9 4.3 0.00 0.00 0.00 59 1023.2
20260505164518 63 251 0.9 2.6 0.00 0.00 0.00 59 1023.2
20260505163517 63 237 0.9 4.3 0.00 0.00 0.00 58 1023.3
20260505162516 63 258 0.9 3.5 0.00 0.00 0.00 59 1023.3
20260505161518 63 235 0.9 2.6 0.00 0.00 0.00 59 1023.4
20260505160538 62 246 0.9 2.6 0.00 0.00 0.00 60 1023.3
20260505152556 63 252 0.9 1.7 0.00 0.00 0.00 63 1023.4
20260505151518 63 287 0.9 1.7 0.00 0.00 0.00 63 1023.5
20260505150518 63 248 1.7 4.3 0.00 0.00 0.00 63 1023.5
20260505140518 63 286 0.9 2.6 0.00 0.00 0.00 55 1023.6
20260505124539 63 293 0.9 2.6 0.00 0.00 0.00 50 1023.3
20260505123518 63 332 0.9 1.7 0.00 0.00 0.00 49 1023.2
20260505122537 63 317 0.9 3.5 0.00 0.00 0.00 48 1023.3
20260505121518 63 317 0.9 3.5 0.00 0.00 0.00 47 1023.2
20260505120538 63 316 0.9 3.5 0.00 0.00 0.00 47 1023.3
20260505115516 63 327 0.9 1.7 0.00 0.00 0.00 47 1023.2
20260505114518 63 314 0.9 1.7 0.00 0.00 0.00 47 1023.1
20260505113517 63 310 0.9 3.5 0.00 0.00 0.00 46 1023.2
20260505112516 63 3 0.9 4.3 0.00 0.00 0.00 45 1023.1
20260505111518 63 347 0.9 1.7 0.00 0.00 0.00 44 1023.0
20260505110518 63 318 0.9 2.6 0.00 0.00 0.00 44 1022.9
20260505101519 64 276 0.9 2.6 0.00 0.00 0.00 36 1022.4
20260505100517 64 260 1.7 4.3 0.00 0.00 0.00 39 1022.2
20260505095516 65 343 0.9 2.6 0.00 0.00 0.00 40 1022.0
20260505094519 65 261 1.7 3.5 0.00 0.00 0.00 40 1022.0
20260505093517 65 247 0.9 3.5 0.00 0.00 0.00 42 1021.9
20260505092516 66 325 0.9 2.6 0.00 0.00 0.00 43 1021.7
20260505091518 66 239 1.7 5.2 0.00 0.00 0.00 43 1021.5
20260505090518 67 277 1.7 4.3 0.00 0.00 0.00 41 1021.3
20260505085517 68 348 0.9 1.7 0.00 0.00 0.00 41 1021.1
20260505084519 69 347 0.9 1.7 0.00 0.00 0.00 39 1020.9
20260505083518 70 335 1.7 3.5 0.00 0.00 0.00 37 1020.8
20260505082517 72 290 0.9 3.5 0.00 0.00 0.00 33 1020.7
20260505081518 74 299 1.7 3.5 0.00 0.00 0.00 30 1020.6
20260505080518 74 300 0.9 2.6 0.00 0.00 0.00 27 1020.6
20260505075517 74 268 1.7 4.3 0.00 0.00 0.00 25 1020.5
20260505074519 76 326 0.9 3.5 0.00 0.00 0.00 22 1020.5
20260505073518 76 279 1.7 4.3 0.00 0.00 0.00 21 1020.4
20260505072517 77 322 0.9 2.6 0.00 0.00 0.00 21 1020.2
20260505071516 77 294 0.9 2.6 0.00 0.00 0.00 19 1020.1
20260505070538 78 295 0.9 2.6 0.00 0.00 0.00 17 1020.0
20260505065517 77 327 0.9 3.5 0.00 0.00 0.00 16 1020.1
20260505064519 79 333 0.9 3.5 0.00 0.00 0.00 14 1019.9
20260505063518 79 315 0.9 2.6 0.00 0.00 0.00 14 1019.9
20260505062517 79 271 0.9 3.5 0.00 0.00 0.00 15 1019.9
20260505061519 79 345 0.9 2.6 0.00 0.00 0.00 15 1019.8
20260505060517 79 256 0.9 3.5 0.00 0.00 0.00 15 1019.8
20260505055557 80 358 0.9 1.7 0.00 0.00 0.00 14 1019.6
20260505054559 80 80 0.9 3.5 0.00 0.00 0.00 14 1019.6
20260505053518 79 37 0.9 2.6 0.00 0.00 0.00 13 1019.6
20260505052516 80 88 1.7 3.5 0.00 0.00 0.00 13 1019.7
20260505051519 79 10 0.9 1.7 0.00 0.00 0.00 13 1019.8
20260505050518 78 88 0.9 3.5 0.00 0.00 0.00 14 1020.1
20260505041516 78 15 1.7 4.3 0.00 0.00 0.00 15 1020.4
20260505040518 77 15 0.9 1.7 0.00 0.00 0.00 15 1020.4
20260505035517 75 257 0.9 1.7 0.00 0.00 0.00 15 1020.4
20260505034516 74 31 1.7 3.5 0.00 0.00 0.00 16 1020.4
20260505033519 76 359 0.9 2.6 0.00 0.00 0.00 16 1020.4
20260505032537 75 27 0.9 2.6 0.00 0.00 0.00 15 1020.5
20260505031519 75 40 1.7 3.5 0.00 0.00 0.00 16 1020.5
20260505030518 76 10 0.9 2.6 0.00 0.00 0.00 15 1020.5
20260505025517 75 348 0.9 3.5 0.00 0.00 0.00 15 1020.4
20260505024519 76 27 0.9 3.5 0.00 0.00 0.00 15 1020.5
20260505023517 74 11 0.9 2.6 0.00 0.00 0.00 15 1020.7
20260505022516 73 358 1.7 5.2 0.00 0.00 0.00 15 1020.6
20260505021519 74 20 0.9 2.6 0.00 0.00 0.00 17 1020.8
20260505020518 72 293 0.9 3.5 0.00 0.00 0.00 17 1020.8
20260505015537 73 55 0.9 2.6 0.00 0.00 0.00 17 1020.8
20260505014519 72 11 0.9 4.3 0.00 0.00 0.00 19 1020.8
20260505013517 71 320 0.9 2.6 0.00 0.00 0.00 19 1020.7
20260505012519 71 329 1.7 5.2 0.00 0.00 0.00 20 1020.8
20260505011517 70 314 1.7 6.1 0.00 0.00 0.00 21 1020.7
20260505010516 71 358 1.7 4.3 0.00 0.00 0.00 20 1020.8
20260505005518 69 352 1.7 3.5 0.00 0.00 0.00 21 1020.7
20260505004517 70 301 0.9 3.5 0.00 0.00 0.00 21 1020.6
20260505003537 69 18 1.7 4.3 0.00 0.00 0.00 23 1020.6
20260505002518 68 300 1.7 4.3 0.00 0.00 0.00 23 1020.5
20260505001517 67 331 0.9 3.5 0.00 0.00 0.00 24 1020.5
20260505000516 67 309 1.7 4.3 0.00 0.00 0.00 24 1020.4
20260504235519 68 336 1.7 3.5 0.00 0.00 0.00 24 1020.5
20260504234517 67 339 1.7 4.3 0.00 0.00 0.00 25 1020.5
20260504233516 65 301 1.7 3.5 0.00 0.00 0.00 27 1020.5
20260504232538 65 301 1.7 4.3 0.00 0.00 0.00 28 1020.6
20260504231557 65 289 1.7 5.2 0.00 0.00 0.00 28 1020.6
20260504230516 66 290 1.7 4.3 0.00 0.00 0.00 27 1020.6
20260504225518 66 303 1.7 3.5 0.00 0.00 0.00 28 1020.4